[[{"header":{"parameterUnit":"m.s-1","parameterCategory":2,"la1":30.2992,"la2":30.254,"lo1":-89.0895,"lo2":-89.0443,"dy":0.0025,"dx":0.0025,"nx":19,"ny":19,"refTime":"2026-03-26T03:00:00:Z","depth":"0","parameterNumber":2,"parameterNumberName":"U-component_of_CURRENTS"},"data":[0,0,0,0.2868,0.2868,0.2856,0.2856,0.2797,0.2796,0,0,0,0,0,0,0,0,0,0,0,0.2871,0.2871,0.2868,0.2868,0.2856,0.2856,0.2797,0.2796,0,0,0,0,0,0,0,0,0,0,0,0.2871,0.2871,0.2871,0.2868,0.2856,0.2856,0.2797,0.2817,0,0,0,0,0,0,0,0,0,0,0.2834,0.2836,0.2871,0.2871,0.2868,0.2856,0.2856,0.2818,0.2815,0.2791,0,0.279,0,0.2792,0.2792,0.2791,0,0,0,0.2866,0.2838,0.2843,0.2871,0.2868,0.2856,0.2861,0.2817,0.2814,0.2787,0.2789,0.2787,0.2791,0.2791,0.2791,0.2801,0.2802,0,0,0.2867,0.2859,0.2845,0.2841,0.2865,0.2861,0.2861,0.2816,0.2806,0.2789,0.2786,0.279,0.2791,0.279,0.28,0.2801,0,0,0,0.287,0.286,0.2866,0.2843,0.2844,0.2861,0.286,0.2808,0.2813,0.2786,0.2789,0.279,0.2789,0.28,0.2801,0.2791,0,0,0,0.287,0.2862,0.2867,0.2861,0.2845,0.283,0.2854,0.2816,0.2811,0.2789,0.279,0.2789,0.2799,0.28,0.279,0.2774,0,0,0,0.2872,0.2862,0.2863,0.2861,0.2858,0.2831,0.2833,0.2816,0.2813,0.2791,0.2789,0.2798,0.28,0.2789,0.2773,0.2795,0,0,0,0.2862,0.2854,0.2863,0.2851,0.2858,0.2851,0.2833,0.2829,0.2815,0.279,0.2799,0.2801,0.2788,0.2772,0.2794,0.2751,0.2752,0,0,0.2847,0.2852,0.2846,0.2854,0.283,0.2852,0.284,0.2823,0.2832,0.2808,0.2809,0.279,0.2773,0.2794,0.284,0.2838,0,0,0,0.2838,0.2827,0.2824,0.2811,0.2817,0.2825,0.2823,0.2834,0.2846,0.2831,0.2824,0.2815,0.2828,0.2802,0.2801,0.2592,0.2808,0.2808,0.2807,0.2766,0.2781,0.276,0.2777,0.2783,0.2804,0.2821,0.2843,0.2841,0.2873,0.2832,0.2875,0.285,0.2848,0.2634,0.2869,0.2869,0.2869,0.2869,0.2707,0.2687,0.2714,0.2703,0.2732,0.2736,0.2801,0.2828,0.2861,0.2866,0.288,0.2825,0.2846,0.2618,0.2868,0.2868,0.2868,0.2868,0.2868,0.2626,0.2628,0.2628,0.2627,0.2645,0.2701,0.274,0.2797,0.2851,0.2866,0.2857,0.2856,0.2633,0.2882,0.2882,0.2882,0.2882,0.2882,0.2882,0.2543,0.2553,0.2537,0.2557,0.2569,0.2613,0.2709,0.2763,0.2827,0.2846,0.2846,0.2624,0.288,0.2852,0.2883,0.2882,0.2882,0.2882,0.2882,0.246,0.247,0.2446,0.2449,0.2486,0.2499,0.2622,0.2714,0.2776,0.2798,0.2568,0.2843,0.2842,0.2843,0.2816,0.2835,0.2835,0.2835,0.2835,0.2403,0.2409,0.2373,0.2369,0.2388,0.2446,0.2462,0.2557,0.2541,0.246,0.2429,0.2376,0.2387,0.2356,0.2367,0.233,0.2225,0.2224,0.2223,0.236,0.2359,0.2316,0.2316,0.2338,0.2374,0.2341,0.226,0.2198,0.2176,0.2142,0.2168,0.2069,0.2104,0.2043,0.2076,0.2012,0,0]},{"header":{"parameterUnit":"m.s-1","parameterCategory":2,"la1":30.2992,"la2":30.254,"lo1":-89.0895,"lo2":-89.0443,"dy":0.0025,"dx":0.0025,"nx":19,"ny":19,"refTime":"2026-03-26T03:00:00:Z","depth":"0","parameterNumber":3,"parameterNumberName":"V-component_of_CURRENTS"},"data":[0,0,0,0.0037,0.0037,0.0088,0.0088,0.0146,0.0146,0,0,0,0,0,0,0,0,0,0,0,0.0019,0.0019,0.0036,0.0038,0.0088,0.0088,0.0146,0.0146,0,0,0,0,0,0,0,0,0,0,0,0.0019,0.0019,0.0019,0.0038,0.0088,0.0088,0.0146,0.011,0,0,0,0,0,0,0,0,0,0,0.0063,0.0046,0.0019,0.0019,0.0038,0.0088,0.0088,0.0109,0.0113,0.012,0,0.0126,0,0.0136,0.015,0.015,0,0,0,0.0041,0.0042,0.0056,0.0019,0.0038,0.0088,0.0066,0.0111,0.0115,0.0125,0.0127,0.013,0.0137,0.015,0.015,0.023,0.0231,0,0,0.0039,0.0029,0.0053,0.0058,0.005,0.0065,0.0068,0.0114,0.0117,0.0128,0.0131,0.0138,0.015,0.0151,0.023,0.023,0,0,0,0.0028,0.0027,0.004,0.0056,0.0065,0.0066,0.007,0.0115,0.0119,0.0132,0.0139,0.0151,0.0151,0.0229,0.023,0.0293,0,0,0,0.0027,0.0021,0.0038,0.0034,0.0064,0.0092,0.007,0.0116,0.0122,0.0139,0.0151,0.0152,0.0229,0.023,0.029,0.0333,0,0,0,0.0017,0.002,0.0025,0.0033,0.0053,0.0091,0.0098,0.0118,0.0126,0.015,0.0152,0.0228,0.0229,0.0287,0.0328,0.0379,0,0,0,0.0007,0.0037,0.0025,0.0061,0.0053,0.0111,0.0098,0.0138,0.0162,0.0151,0.0229,0.023,0.0287,0.0325,0.0376,0.049,0.0514,0,0,0.0045,0.0041,0.0064,0.0055,0.0118,0.0104,0.0178,0.0196,0.0182,0.0212,0.0214,0.0291,0.0328,0.0379,0.0558,0.0581,0,0,0,0.0076,0.0095,0.0112,0.0141,0.0168,0.0215,0.0225,0.0236,0.0269,0.02,0.0297,0.0319,0.0349,0.0411,0.0429,0.0383,0.0235,0.0235,0.0235,0.0125,0.0139,0.0192,0.0221,0.0255,0.0294,0.0335,0.0352,0.0321,0.0345,0.0375,0.0464,0.0531,0.0546,0.0497,0.0371,0.0371,0.0371,0.0371,0.0199,0.0235,0.0255,0.0311,0.0346,0.0402,0.0453,0.0447,0.0502,0.0449,0.0474,0.048,0.0569,0.051,0.0375,0.0375,0.0374,0.0374,0.0374,0.0238,0.0261,0.0285,0.0363,0.0435,0.0478,0.0578,0.0583,0.0571,0.0603,0.0658,0.0658,0.0603,0.0606,0.0607,0.0607,0.0607,0.0608,0.0608,0.0269,0.0298,0.0354,0.0426,0.0482,0.0571,0.0654,0.0709,0.0764,0.0755,0.0755,0.0644,0.0536,0.0523,0.0615,0.0613,0.0613,0.0612,0.0611,0.0327,0.0329,0.0415,0.0469,0.0602,0.0729,0.079,0.0936,0.0967,0.1016,0.0887,0.0837,0.0832,0.0818,0.0812,0.0973,0.0973,0.0973,0.0973,0.0356,0.0367,0.0472,0.0565,0.0691,0.0803,0.1034,0.1178,0.1154,0.112,0.1006,0.0964,0.0951,0.0947,0.093,0.0923,0.1109,0.1109,0.1109,0.0396,0.042,0.0498,0.0584,0.0726,0.0898,0.1159,0.1403,0.1307,0.1102,0.0921,0.0915,0.0832,0.0816,0.0788,0.0768,0.0749,0,0]}],[{"header":{"parameterUnit":"m.s-1","parameterCategory":2,"la1":30.2992,"la2":30.254,"lo1":-89.0895,"lo2":-89.0443,"dy":0.0025,"dx":0.0025,"nx":19,"ny":19,"refTime":"2026-03-26T03:00:00:Z","depth":"2","parameterNumber":2,"parameterNumberName":"U-component_of_CURRENTS"},"data":[0,0,0,0.1721,0.1722,0.1767,0.1767,0.1825,0.1825,0,0,0,0,0,0,0,0,0,0,0,0.169,0.169,0.1721,0.1722,0.1767,0.1767,0.1825,0.1825,0,0,0,0,0,0,0,0,0,0,0,0.169,0.169,0.169,0.1722,0.1767,0.1767,0.1824,0.179,0,0,0,0,0,0,0,0,0,0,0.1746,0.1725,0.169,0.169,0.1722,0.1767,0.1767,0.1788,0.1792,0.1805,0,0.1802,0,0.1823,0.1829,0.183,0,0,0,0.172,0.1722,0.173,0.169,0.1723,0.1767,0.1746,0.179,0.1795,0.181,0.1803,0.1806,0.1824,0.183,0.183,0.1889,0.1889,0,0,0.1717,0.1706,0.1727,0.1733,0.1723,0.1745,0.1747,0.1793,0.1795,0.1804,0.1808,0.1825,0.183,0.1831,0.1888,0.1889,0,0,0,0.1712,0.1704,0.1711,0.173,0.1742,0.1746,0.1749,0.1793,0.1793,0.1808,0.1826,0.183,0.1831,0.1888,0.1888,0.1927,0,0,0,0.171,0.1701,0.171,0.1705,0.1741,0.1771,0.1748,0.179,0.1796,0.1825,0.183,0.1832,0.1888,0.1888,0.1925,0.1907,0,0,0,0.169,0.17,0.17,0.1704,0.1726,0.1771,0.1774,0.1791,0.1807,0.183,0.1832,0.1888,0.1888,0.1924,0.1906,0.1925,0,0,0,0.1685,0.1681,0.1699,0.17,0.1725,0.1754,0.1774,0.1809,0.1828,0.1831,0.1888,0.1888,0.1924,0.1905,0.1924,0.1826,0.1823,0,0,0.1677,0.168,0.1679,0.1697,0.1717,0.1749,0.1786,0.1825,0.1839,0.1872,0.1874,0.1926,0.1906,0.1925,0.1852,0.1848,0,0,0,0.1675,0.1673,0.1678,0.1698,0.1726,0.1763,0.181,0.1843,0.1895,0.1853,0.1924,0.1909,0.1921,0.186,0.1857,0.1891,0.189,0.189,0.189,0.1642,0.1665,0.1667,0.1696,0.1721,0.179,0.1823,0.1877,0.1903,0.194,0.1942,0.1976,0.1913,0.1909,0.196,0.196,0.196,0.196,0.196,0.1623,0.1622,0.1658,0.1673,0.1723,0.1773,0.1856,0.1901,0.1967,0.1977,0.1988,0.1903,0.1907,0.1963,0.1963,0.1962,0.1962,0.1962,0.1962,0.1593,0.1598,0.1613,0.1648,0.1702,0.1773,0.183,0.1907,0.1976,0.1997,0.1938,0.1935,0.1987,0.2022,0.2022,0.2022,0.2022,0.2022,0.2022,0.1559,0.1574,0.158,0.1622,0.1648,0.1721,0.1827,0.1873,0.1921,0.1942,0.1941,0.1996,0.1994,0.199,0.2022,0.2022,0.2022,0.2022,0.2022,0.1513,0.1528,0.1531,0.1544,0.1601,0.1595,0.1719,0.1763,0.1828,0.1826,0.1911,0.1913,0.1884,0.1885,0.1877,0.1878,0.1878,0.1878,0.1878,0.1472,0.1485,0.1473,0.1475,0.1497,0.1531,0.1477,0.1515,0.1631,0.1663,0.1672,0.1635,0.1646,0.1601,0.1609,0.1594,0.1522,0.1521,0.152,0.1425,0.1439,0.1407,0.1427,0.1434,0.1425,0.1297,0.1196,0.1301,0.1506,0.1604,0.1855,0.1825,0.1832,0.1783,0.1787,0.1772,0,0]},{"header":{"parameterUnit":"m.s-1","parameterCategory":2,"la1":30.2992,"la2":30.254,"lo1":-89.0895,"lo2":-89.0443,"dy":0.0025,"dx":0.0025,"nx":19,"ny":19,"refTime":"2026-03-26T03:00:00:Z","depth":"2","parameterNumber":3,"parameterNumberName":"V-component_of_CURRENTS"},"data":[0,0,0,0.0178,0.0178,0.0188,0.0188,0.02,0.02,0,0,0,0,0,0,0,0,0,0,0,0.0183,0.0183,0.0178,0.0178,0.0188,0.0188,0.02,0.02,0,0,0,0,0,0,0,0,0,0,0,0.0182,0.0183,0.0183,0.0178,0.0188,0.0188,0.02,0.0193,0,0,0,0,0,0,0,0,0,0,0.0184,0.0179,0.0183,0.0183,0.0178,0.0188,0.0188,0.0193,0.0193,0.0194,0,0.02,0,0.0195,0.02,0.02,0,0,0,0.0181,0.0178,0.0187,0.0183,0.0178,0.0188,0.0185,0.0193,0.0194,0.0194,0.02,0.02,0.0195,0.02,0.02,0.0233,0.0233,0,0,0.0181,0.0177,0.0187,0.0188,0.0187,0.0184,0.0185,0.0194,0.0193,0.02,0.02,0.0196,0.02,0.02,0.0233,0.0233,0,0,0,0.0177,0.0177,0.0185,0.0188,0.0187,0.0184,0.0185,0.0193,0.0198,0.02,0.0196,0.02,0.02,0.0232,0.0233,0.0284,0,0,0,0.0177,0.0174,0.0185,0.0182,0.0187,0.0188,0.0184,0.0198,0.0198,0.0196,0.02,0.02,0.0232,0.0232,0.0282,0.0324,0,0,0,0.0181,0.0174,0.0179,0.0182,0.0185,0.0188,0.0193,0.0198,0.0195,0.02,0.02,0.0232,0.0232,0.028,0.032,0.0353,0,0,0,0.0172,0.0193,0.0179,0.0204,0.0185,0.0215,0.0193,0.0208,0.0216,0.02,0.0232,0.0233,0.0279,0.0318,0.035,0.0402,0.0418,0,0,0.0197,0.0195,0.0213,0.0201,0.0242,0.0214,0.0254,0.0249,0.0226,0.0228,0.0229,0.0283,0.032,0.0352,0.0445,0.0459,0,0,0,0.022,0.0236,0.0247,0.0264,0.0274,0.0293,0.0279,0.0276,0.0278,0.0233,0.0283,0.0305,0.0324,0.035,0.0362,0.0236,0.0236,0.0236,0.0236,0.0254,0.0266,0.0303,0.0323,0.0341,0.0347,0.0362,0.0353,0.032,0.0327,0.0347,0.0409,0.0437,0.0447,0.0335,0.0336,0.0336,0.0336,0.0336,0.0307,0.0331,0.035,0.039,0.0406,0.0435,0.0446,0.0429,0.0446,0.0401,0.0416,0.0403,0.0463,0.034,0.0339,0.0339,0.0338,0.0338,0.0338,0.0329,0.0344,0.0367,0.0426,0.0477,0.0498,0.0568,0.0545,0.0507,0.0523,0.0536,0.0536,0.0448,0.0521,0.0522,0.0522,0.0522,0.0523,0.0523,0.0339,0.0366,0.0411,0.0471,0.0521,0.0592,0.0639,0.0664,0.0654,0.0615,0.0615,0.0472,0.0466,0.0459,0.0528,0.0527,0.0526,0.0526,0.0525,0.037,0.0378,0.0451,0.0502,0.0628,0.0742,0.0774,0.0833,0.0822,0.0824,0.0662,0.0657,0.0649,0.0639,0.0637,0.0748,0.0748,0.0748,0.0748,0.0386,0.0396,0.0496,0.0591,0.0715,0.0815,0.0955,0.0957,0.0881,0.0804,0.0801,0.0763,0.0753,0.0747,0.0735,0.0732,0.0868,0.0868,0.0868,0.0415,0.044,0.0517,0.061,0.0759,0.091,0.104,0.1017,0.0881,0.0869,0.0782,0.0764,0.0698,0.0687,0.0665,0.065,0.0641,0,0]}],[{"header":{"parameterUnit":"m.s-1","parameterCategory":2,"la1":30.2992,"la2":30.254,"lo1":-89.0895,"lo2":-89.0443,"dy":0.0025,"dx":0.0025,"nx":19,"ny":19,"refTime":"2026-03-26T03:00:00:Z","depth":"4","parameterNumber":2,"parameterNumberName":"U-component_of_CURRENTS"},"data":[0,0,0,0.0865,0.0868,0.097,0.097,0.1055,0.1055,0,0,0,0,0,0,0,0,0,0,0,0.0826,0.0827,0.0865,0.0868,0.097,0.097,0.1055,0.1055,0,0,0,0,0,0,0,0,0,0,0,0.0826,0.0827,0.0828,0.0868,0.097,0.097,0.1054,0.0987,0,0,0,0,0,0,0,0,0,0,0.0893,0.0875,0.0826,0.0828,0.0869,0.097,0.097,0.0985,0.0991,0.0997,0,0.1019,0,0.1044,0.1061,0.1061,0,0,0,0.0862,0.0869,0.089,0.0828,0.087,0.097,0.0922,0.0989,0.0997,0.1006,0.102,0.1024,0.1045,0.1061,0.1061,0.1128,0.1128,0,0,0.0856,0.085,0.0885,0.0895,0.0904,0.0919,0.0925,0.0994,0.1008,0.1021,0.1027,0.1046,0.1062,0.1062,0.1127,0.1128,0,0,0,0.0844,0.0846,0.0866,0.0891,0.0916,0.0922,0.0929,0.1005,0.101,0.1028,0.1047,0.1062,0.1063,0.1127,0.1127,0.1169,0,0,0,0.084,0.0839,0.0864,0.0862,0.0915,0.0971,0.0939,0.1005,0.1014,0.1047,0.1062,0.1064,0.1127,0.1127,0.1168,0.1164,0,0,0,0.082,0.0838,0.085,0.0861,0.0908,0.0971,0.098,0.1008,0.1026,0.1061,0.1064,0.1127,0.1127,0.1167,0.1163,0.1197,0,0,0,0.0808,0.0824,0.085,0.0875,0.0907,0.0958,0.098,0.1037,0.1069,0.1062,0.1127,0.1127,0.1166,0.1162,0.1196,0.1022,0,0,0,0.0814,0.0825,0.0837,0.0862,0.0902,0.0943,0.0998,0.1058,0.1072,0.11,0.1102,0.1168,0.1163,0.1197,0.1044,0,0,0,0,0.0828,0.0838,0.0854,0.089,0.0931,0.0986,0.1045,0.1072,0.1128,0.1095,0.1164,0.1158,0.1179,0.1073,0.1129,0.1129,0.1129,0.1129,0.1129,0.0828,0.0845,0.0867,0.09,0.0942,0.1027,0.1072,0.1118,0.114,0.1172,0.119,0.1237,0.1126,0.1198,0.1198,0.1198,0.1198,0.1198,0.1198,0.0824,0.0826,0.0871,0.0899,0.0964,0.1025,0.1108,0.1151,0.1219,0.1213,0.1233,0.112,0.1202,0.1202,0.1201,0.1201,0.12,0.12,0.12,0.0803,0.0803,0.0838,0.0887,0.0959,0.104,0.11,0.1184,0.124,0.1274,0.1178,0.1262,0.1262,0.1306,0.1306,0.1306,0.1306,0.1306,0.1306,0.0762,0.0791,0.0814,0.0875,0.0912,0.0986,0.1112,0.1152,0.1239,0.1188,0.1296,0.1272,0.1269,0.1267,0.1309,0.1308,0.1308,0.1308,0.1308,0.0712,0.0746,0.0763,0.0794,0.0855,0.0891,0.1027,0.1078,0.1121,0.1112,0.1143,0.115,0.1117,0.1118,0.1109,0.1106,0.1104,0.1102,0,0.0678,0.0695,0.0712,0.0723,0.0737,0.0818,0.0832,0.0906,0.0989,0.0953,0.112,0.1153,0.1158,0.1118,0.1115,0.1102,0,0,0,0.0647,0.066,0.0648,0.0666,0.0667,0.0715,0.0825,0.0819,0.0976,0.0963,0.1049,0.1063,0.1196,0.1316,0.1283,0.1278,0.1274,0,0]},{"header":{"parameterUnit":"m.s-1","parameterCategory":2,"la1":30.2992,"la2":30.254,"lo1":-89.0895,"lo2":-89.0443,"dy":0.0025,"dx":0.0025,"nx":19,"ny":19,"refTime":"2026-03-26T03:00:00:Z","depth":"4","parameterNumber":3,"parameterNumberName":"V-component_of_CURRENTS"},"data":[0,0,0,0.0207,0.0207,0.0215,0.0215,0.022,0.022,0,0,0,0,0,0,0,0,0,0,0,0.0211,0.0211,0.0207,0.0207,0.0215,0.0215,0.022,0.022,0,0,0,0,0,0,0,0,0,0,0,0.0211,0.0211,0.0211,0.0207,0.0215,0.0215,0.022,0.0216,0,0,0,0,0,0,0,0,0,0,0.0209,0.0207,0.0211,0.0211,0.0207,0.0215,0.0215,0.0216,0.0216,0.0214,0,0.0219,0,0.0215,0.022,0.022,0,0,0,0.021,0.0207,0.0213,0.0211,0.0207,0.0215,0.0212,0.0216,0.0217,0.0215,0.0219,0.0219,0.0216,0.022,0.022,0.0232,0.0232,0,0,0.021,0.0207,0.0213,0.0213,0.0214,0.0212,0.0212,0.0217,0.0216,0.0219,0.0219,0.0216,0.022,0.022,0.0232,0.0232,0,0,0,0.0206,0.0207,0.0213,0.0213,0.0213,0.0212,0.0213,0.0216,0.022,0.0219,0.0216,0.022,0.022,0.0232,0.0232,0.0276,0,0,0,0.0206,0.0205,0.0213,0.0211,0.0213,0.0213,0.0212,0.022,0.022,0.0216,0.022,0.022,0.0232,0.0232,0.0275,0.0298,0,0,0,0.021,0.0205,0.0208,0.0211,0.0213,0.0213,0.0217,0.022,0.0217,0.022,0.022,0.0231,0.0232,0.0273,0.0295,0.032,0,0,0,0.0203,0.0215,0.0208,0.0224,0.0213,0.0233,0.0217,0.0228,0.0234,0.022,0.0232,0.0232,0.0273,0.0294,0.0318,0.0317,0,0,0,0.0217,0.0217,0.0228,0.0222,0.0251,0.0231,0.0257,0.0255,0.0236,0.023,0.023,0.0275,0.0295,0.032,0.0335,0,0,0,0,0.0232,0.0242,0.025,0.0264,0.0271,0.0284,0.0275,0.0269,0.0268,0.0239,0.0269,0.028,0.0294,0.0288,0.0233,0.0233,0.0233,0.0233,0.0233,0.0249,0.0261,0.0286,0.0303,0.0315,0.032,0.0328,0.0316,0.0295,0.0297,0.0312,0.0355,0.0349,0.0304,0.0304,0.0304,0.0304,0.0304,0.0305,0.028,0.0296,0.0317,0.0347,0.0361,0.0383,0.0382,0.0371,0.0374,0.0343,0.0355,0.0329,0.0309,0.0308,0.0307,0.0307,0.0306,0.0306,0.0306,0.0289,0.0299,0.0323,0.0371,0.0414,0.043,0.0473,0.0455,0.0421,0.0431,0.042,0.0386,0.0388,0.0438,0.0438,0.0438,0.0438,0.0439,0.0439,0.0286,0.0311,0.035,0.0401,0.0446,0.0499,0.0528,0.0534,0.0502,0.0473,0.0447,0.04,0.0395,0.0395,0.0442,0.0441,0.0441,0.0441,0.044,0.0296,0.031,0.0369,0.0415,0.0519,0.056,0.0592,0.0588,0.0591,0.056,0.049,0.0487,0.0471,0.0465,0.0466,0.0537,0.0537,0.0537,0,0.03,0.0311,0.0394,0.0473,0.0559,0.0601,0.063,0.0632,0.0577,0.0563,0.0575,0.0497,0.0494,0.0476,0.0471,0.0472,0,0,0,0.0313,0.0337,0.0397,0.0479,0.0581,0.0618,0.0641,0.063,0.0581,0.0581,0.0542,0.054,0.0505,0.0452,0.042,0.0415,0.0412,0,0]}]]